When you browse on this site, cookies collect data to enhance your experience and personalize the content and advertising you see.
Visit our Privacy Policy to learn more. By continuing to use the site, you agree to this use of cookies and data.

Hourly Weather Jaunjelgava

Today, 11 July, Saturday

Time Temperature Precipitation Wind Pressure Humidity
00:00 +16°C° 0.2 mm 2 mps 750 mmHg 98%
01:00 +16°C° 0.2 mm 3 mps 750 mmHg 98%
02:00 +17°C° 0 mm 3 mps 750 mmHg 98%
03:00 +17°C° 0.1 mm 4 mps 749 mmHg 97%
04:00 +17°C° 0.1 mm 5 mps 749 mmHg 96%
05:00 +17°C° 0.1 mm 5 mps 749 mmHg 95%
06:00 +16°C° 0.1 mm 6 mps 750 mmHg 90%
07:00 +15°C° 0.1 mm 6 mps 751 mmHg 86%
08:00 +14°C° 0 mm 6 mps 752 mmHg 81%
09:00 +15°C° 0 mm 6 mps 753 mmHg 72%
10:00 +16°C° 0 mm 6 mps 753 mmHg 63%
11:00 +17°C° 0 mm 7 mps 754 mmHg 54%
12:00 +18°C° 0 mm 7 mps 755 mmHg 53%
13:00 +18°C° 0 mm 7 mps 755 mmHg 53%
14:00 +20°C° 0 mm 7 mps 756 mmHg 52%
15:00 +20°C° 0 mm 6 mps 756 mmHg 54%
16:00 +19°C° 0 mm 6 mps 756 mmHg 55%
17:00 +19°C° 0 mm 5 mps 757 mmHg 56%
18:00 +18°C° 0 mm 4 mps 757 mmHg 63%
19:00 +17°C° 0 mm 3 mps 757 mmHg 69%
20:00 +16°C° 0 mm 2 mps 758 mmHg 75%
21:00 +14°C° 0 mm 2 mps 758 mmHg 80%
22:00 +13°C° 0 mm 2 mps 758 mmHg 85%
23:00 +12°C° 0 mm 1 mps 759 mmHg 90%

Tomorrow, 12 July, Sunday

Time Temperature Precipitation Wind Pressure Humidity
00:00 +12°C° 0 mm 1 mps 759 mmHg 92%
01:00 +11°C° 0 mm 1 mps 759 mmHg 94%
02:00 +11°C° 0 mm 1 mps 759 mmHg 96%
03:00 +10°C° 0 mm 2 mps 759 mmHg 96%
04:00 +10°C° 0 mm 2 mps 758 mmHg 95%
05:00 +10°C° 0 mm 2 mps 758 mmHg 95%
06:00 +13°C° 0 mm 2 mps 758 mmHg 88%
07:00 +14°C° 0 mm 2 mps 758 mmHg 82%
08:00 +16°C° 0 mm 2 mps 759 mmHg 75%
09:00 +17°C° 0.1 mm 2 mps 759 mmHg 69%
10:00 +18°C° 0.1 mm 2 mps 759 mmHg 64%
11:00 +19°C° 0.1 mm 2 mps 758 mmHg 58%
12:00 +20°C° 0.2 mm 2 mps 758 mmHg 57%
13:00 +20°C° 0.2 mm 3 mps 758 mmHg 56%
14:00 +21°C° 0.2 mm 3 mps 758 mmHg 54%
15:00 +20°C° 0.2 mm 3 mps 758 mmHg 59%
16:00 +20°C° 0.2 mm 3 mps 758 mmHg 64%
17:00 +19°C° 0.2 mm 3 mps 758 mmHg 68%
18:00 +18°C° 0.2 mm 2 mps 758 mmHg 75%
19:00 +17°C° 0.2 mm 2 mps 758 mmHg 81%
20:00 +15°C° 0.2 mm 2 mps 758 mmHg 87%
21:00 +14°C° 0 mm 2 mps 758 mmHg 90%
22:00 +13°C° 0 mm 2 mps 758 mmHg 93%
23:00 +11°C° 0 mm 1 mps 758 mmHg 95%

Day after tomorrow, 13 July, Monday

Time Temperature Precipitation Wind Pressure Humidity
00:00 +11°C° 0 mm 1 mps 758 mmHg 96%
01:00 +10°C° 0 mm 1 mps 758 mmHg 96%
02:00 +10°C° 0 mm 1 mps 758 mmHg 97%
03:00 +10°C° 0 mm 1 mps 758 mmHg 97%
04:00 +9°C° 0 mm 1 mps 758 mmHg 97%
05:00 +9°C° 0 mm 1 mps 757 mmHg 98%
06:00 +11°C° 0 mm 1 mps 757 mmHg 92%
07:00 +13°C° 0 mm 2 mps 757 mmHg 86%
08:00 +15°C° 0 mm 2 mps 757 mmHg 81%
09:00 +17°C° 0 mm 2 mps 757 mmHg 71%
10:00 +18°C° 0 mm 2 mps 757 mmHg 60%
11:00 +20°C° 0 mm 2 mps 757 mmHg 50%
12:00 +21°C° 0.1 mm 2 mps 757 mmHg 51%
13:00 +21°C° 0.1 mm 2 mps 757 mmHg 52%
14:00 +21°C° 0.1 mm 2 mps 757 mmHg 53%
15:00 +20°C° 0.4 mm 2 mps 756 mmHg 61%
16:00 +20°C° 0.4 mm 2 mps 756 mmHg 70%
17:00 +19°C° 0.4 mm 2 mps 756 mmHg 78%
18:00 +18°C° 0.2 mm 2 mps 756 mmHg 81%
19:00 +18°C° 0.2 mm 1 mps 756 mmHg 84%
20:00 +16°C° 0.2 mm 1 mps 756 mmHg 87%
21:00 +15°C° 0 mm 1 mps 756 mmHg 90%
22:00 +13°C° 0 mm 1 mps 756 mmHg 92%
23:00 +12°C° 0 mm 1 mps 756 mmHg 94%

14 July, Tuesday

Time Temperature Precipitation Wind Pressure Humidity
00:00 +12°C° 0 mm 1 mps 757 mmHg 95%
01:00 +11°C° 0 mm 1 mps 757 mmHg 95%
02:00 +11°C° 0 mm 1 mps 757 mmHg 96%
03:00 +11°C° 0 mm 1 mps 757 mmHg 95%
04:00 +11°C° 0 mm 1 mps 757 mmHg 95%
05:00 +10°C° 0 mm 0 mps 757 mmHg 95%
06:00 +12°C° 0 mm 0 mps 757 mmHg 89%
07:00 +14°C° 0 mm 0 mps 757 mmHg 82%
08:00 +16°C° 0 mm 0 mps 758 mmHg 76%
09:00 +20°C° 0 mm 1 mps 757 mmHg 68%
10:00 +21°C° 0 mm 1 mps 757 mmHg 59%
11:00 +23°C° 0 mm 1 mps 757 mmHg 51%
12:00 +23°C° 0.1 mm 1 mps 757 mmHg 50%
13:00 +23°C° 0.1 mm 1 mps 757 mmHg 50%
14:00 +23°C° 0.1 mm 1 mps 757 mmHg 50%
15:00 +23°C° 0.1 mm 1 mps 757 mmHg 52%
16:00 +23°C° 0.1 mm 1 mps 757 mmHg 53%
17:00 +23°C° 0.1 mm 1 mps 757 mmHg 55%
18:00 +21°C° 0.1 mm 1 mps 757 mmHg 64%
19:00 +20°C° 0.1 mm 1 mps 757 mmHg 73%
20:00 +18°C° 0.1 mm 1 mps 757 mmHg 82%
21:00 +16°C° 0 mm 1 mps 757 mmHg 85%
22:00 +14°C° 0 mm 0 mps 757 mmHg 88%
23:00 +13°C° 0 mm 0 mps 757 mmHg 91%

15 July, Wednesday

Time Temperature Precipitation Wind Pressure Humidity
00:00 +13°C° 0 mm 0 mps 757 mmHg 92%
01:00 +13°C° 0 mm 1 mps 757 mmHg 94%
02:00 +13°C° 0 mm 1 mps 757 mmHg 95%
03:00 +13°C° 0 mm 1 mps 757 mmHg 95%
04:00 +13°C° 0 mm 1 mps 757 mmHg 95%
05:00 +13°C° 0 mm 1 mps 757 mmHg 95%
06:00 +15°C° 0 mm 1 mps 757 mmHg 88%
07:00 +18°C° 0 mm 1 mps 757 mmHg 81%
08:00 +20°C° 0 mm 1 mps 757 mmHg 74%
09:00 +21°C° 0 mm 1 mps 757 mmHg 68%
10:00 +23°C° 0 mm 1 mps 757 mmHg 61%
11:00 +24°C° 0 mm 1 mps 757 mmHg 54%
12:00 +24°C° 0.2 mm 1 mps 756 mmHg 55%
13:00 +24°C° 0.2 mm 1 mps 756 mmHg 56%
14:00 +25°C° 0.2 mm 1 mps 756 mmHg 57%
15:00 +24°C° 0.3 mm 1 mps 756 mmHg 62%
16:00 +23°C° 0.3 mm 1 mps 755 mmHg 67%
17:00 +23°C° 0.3 mm 2 mps 755 mmHg 73%
18:00 +22°C° 0.1 mm 1 mps 755 mmHg 77%
19:00 +20°C° 0.1 mm 1 mps 755 mmHg 82%
20:00 +19°C° 0.1 mm 1 mps 755 mmHg 87%
21:00 +18°C° 0 mm 1 mps 754 mmHg 89%
22:00 +16°C° 0 mm 1 mps 754 mmHg 91%
23:00 +15°C° 0 mm 2 mps 754 mmHg 93%

16 July, Thursday

Time Temperature Precipitation Wind Pressure Humidity
00:00 +15°C° 0 mm 2 mps 754 mmHg 94%
01:00 +14°C° 0 mm 2 mps 754 mmHg 94%
02:00 +14°C° 0 mm 2 mps 753 mmHg 95%
03:00 +14°C° 0 mm 2 mps 753 mmHg 95%
04:00 +14°C° 0 mm 2 mps 753 mmHg 94%
05:00 +14°C° 0 mm 2 mps 752 mmHg 94%
06:00 +16°C° 0 mm 3 mps 752 mmHg 86%
07:00 +17°C° 0 mm 3 mps 752 mmHg 79%
08:00 +19°C° 0 mm 3 mps 751 mmHg 72%
09:00 +20°C° 0.2 mm 3 mps 751 mmHg 69%
10:00 +21°C° 0.2 mm 3 mps 751 mmHg 67%
11:00 +24°C° 0.2 mm 3 mps 751 mmHg 65%
12:00 +21°C° 1.1 mm 3 mps 750 mmHg 73%
13:00 +20°C° 1.1 mm 3 mps 750 mmHg 81%
14:00 +19°C° 1.1 mm 3 mps 750 mmHg 89%
15:00 +18°C° 0.7 mm 3 mps 750 mmHg 92%
16:00 +17°C° 0.7 mm 2 mps 750 mmHg 94%
17:00 +15°C° 0.7 mm 2 mps 750 mmHg 97%
18:00 +15°C° 0.8 mm 1 mps 750 mmHg 98%
19:00 +15°C° 0.8 mm 1 mps 750 mmHg 98%
20:00 +15°C° 0.8 mm 1 mps 750 mmHg 98%
21:00 +14°C° 0.4 mm 1 mps 750 mmHg 98%
22:00 +14°C° 0.4 mm 1 mps 750 mmHg 98%
23:00 +13°C° 0.4 mm 1 mps 749 mmHg 98%
Show more